COSMOS 1275 DEB, 13456

Orbit data source: Space-Track

COSMOS 1275 DEB, 13456 is space debris in LEO originally from a launch on Thu, 04 Jun 1981 UTC launched from the Plesetsk Missile And Space Complex (PKMTR). Debris objects in space refer to the collection of defunct objects orbiting the Earth. Examples of debris include non-operational satellites, rocket bodies, and fragments generated from explosions, collisions, or faulty payload assembly.

Loading next visibility...
Identifier
13456, 1981-053FC
Orbit
LEO
Country
Flag of CISCIS
Related business
Manufacturer
Unknown
Mission
Spacecraft
Bus & Motor
Unknown
Mass
Unknown
Launch date (UTC)
1981-06-04 (44 years ago)
Launch vehicle
Unknown
Launch site
Plesetsk Missile And Space Complex (PKMTR)
Object type
Payload
Rocket body
Debris
Shape & HBR
Unknown shape, 0.1 m
Radar Cross Section
Small (<0.1 m²)

Expand to show TLE details & history
Last TLE update: 18 hours ago

TLE from 18 hours ago
0 COSMOS 1275 DEB
1 13456U 81053FC  25293.93034657  .00004281  00000-0  33290-2 0  9998
2 13456  82.8322 185.7172 0153433  14.0762 112.1913 13.86896102178981
Epoch: 2025-10-20T22:19Z
TLE epoch observation values (Epoch: 2025-10-20T22:19:41.943Z)
Latitude
51.6417°
Longitude
-7.92873°
Altitude
991.742 km
Speed
7.339 km/s
True Right ascension
23h 46m 29s
True Declination
51° 28' 46"
Sunlit
Object was in full shadow at epoch
Visualization orbit readout
Latitude
Unknown
Longitude
Unknown
Altitude
Unknown
Speed
Unknown
Apparent Right ascension
Unknown
Apparent Declination
Unknown
Sunlit
N/A
Visualization observer readout
Local Sidereal Time
11:14:00
Azimuth
Unknown
Elevation
Unknown
Doppler factor
Unknown
Orbital elements
Apogee altitude
1,048.897 km
Perigee altitude
824.431 km
Semi-major axis
7,314.801 km
Eccentricity
0.01534
Inclination
82.8322°
RAAN
185.7172°
Arg. of periapsis
14.0762°
True anomaly
113.80735°
Mean anomaly
112.1913°
Eccentric anomaly
113.00052°
Mean motion
3.46928 °/min
Orbital period
103.77 mins
BSTAR
0.003329
Loading maneuver chart data...
Computing Atmospheric mass density...

Documentation

Showing up to 5 results
|